User: anonymous   Login
Location: Unspecified
(0.0000°N, 0.0000°E)
Time: 12:09:34
(UTC+00:00)
Language:

TECSAR - Orbit

View from above orbital plane
View from above orbital plane
View from above satellite
View from above satellite

Ground track
Ground track

The orbit data is extracted from the following two-line orbital elements,

1 32476U 08002A   14241.38365390 0.00012000  00000-0  29067-3 0    04
2 32476  41.0566 309.8773 0014011 271.0117  88.9877 15.40108815    09
Epoch (UTC): 29 August 2014 09:12:27
Eccentricity: 0.0014011
inclination: 41.0566°
perigee height: 436 km
apogee height: 455 km
right ascension of ascending node: 309.8773°
argument of perigee: 271.0117°
revolutions per day: 15.40108815
mean anomaly at epoch: 88.9877°
orbit number at epoch: 0

The dashed part of the orbit path shows where the satellite is in the earth's shadow,  

DLR